Regional Weather Roundup
Issued by NWS

Home | Current Version | Previous Version | Text Only | Print | Product List | Glossary On
Versions: 1 2 3 4 5 6 7 8 9 10 11 12 13 14 15 16 17 18 19 20 21 22 23 24 25 26 27 28 29 30 31 32 33 34 35 36 37 38 39 40 41 42 43 44 45 46 47 48 49 50
000
ASUS46 KSTO 280209
RWRCA

NORTHERN AND CENTRAL CA REGIONAL WEATHER ROUNDUP
NATIONAL WEATHER SERVICE SACRAMENTO CA
600 PM PST TUE JAN 27 2015

NOTE: FAIR INDICATES FEW OR NO CLOUDS BELOW 12,000 FEET WITH NO
SIGNIFICANT WEATHER AND/OR OBSTRUCTIONS TO VISIBILITY.

CAZ001-003-280300-
NORTHWEST AREA

CITY           SKY/WX    TMP DP  RH WIND       PRES   REMARKS
CRESCENT CITY  CLOUDY    52  49  89 CALM      30.21R
ARCATA         NOT AVBL
SHELTER COVE   NOT AVBL
UKIAH          CLOUDY    58  49  72 CALM      30.21R
$$

CAZ006-505>513-280300-
BAY AREA

CITY           SKY/WX    TMP DP  RH WIND       PRES   REMARKS
SANTA ROSA     CLOUDY    58  51  78 CALM      30.21R
SAN RAFAEL     N/A       64  MM  MM MISG
NAPA           MOCLDY    57  50  77 CALM      30.22R
CONCORD        PTCLDY    58  47  66 NW5       30.22R
OAKLAND CITY   N/A       65  MM  MM MISG
OAKLAND        MOCLDY    60  47  61 NW5       30.22R
SAN FRAN CITY  N/A       61  MM  65 MISG
SAN FRAN ARPT  MOCLDY    61  50  67 CALM      30.21R
LIVERMORE      PTCLDY    60  46  59 CALM      30.21R
HAYWARD        PTCLDY    64  47  53 N5        30.21R
REDWOOD CITY   N/A       MM  MM  MM MISG
MOFFETT ARPT   PTCLDY    60  47  61 N7        30.22R
SAN JOSE ARPT  PTCLDY    61  44  53 NW7       30.21R
$$
CAZ034-037-514>518-280300-
CENTRAL COAST

CITY           SKY/WX    TMP DP  RH WIND       PRES   REMARKS
WATSONVILLE    PTCLDY    60  47  61 CALM      30.22R
SALINAS        CLOUDY    64  48  56 W5        30.21R
MONTEREY       CLOUDY    60  52  74 CALM      30.22R
PT PIEDRAS BLS NOT AVBL
SAN LUIS OBISP PTCLDY    59  51  75 S3        30.19R
SANTA MARIA    PTCLDY    60  53  77 N3        30.19S
$$
CAZ015-016-280300-
NORTHERN SACRAMENTO VALLEY

CITY           SKY/WX    TMP DP  RH WIND       PRES   REMARKS
REDDING        CLOUDY    54  48  80 NW3       30.24R
RED BLUFF      CLOUDY    52  47  83 NW3       30.25R
OROVILLE       MOCLDY    54  48  80 CALM      30.24S
$$
CAZ016>018-280300-
SOUTHERN SACRAMENTO VALLEY

CITY           SKY/WX    TMP DP  RH WIND       PRES   REMARKS
AUBURN         CLOUDY    54  46  76 CALM      30.24R
BEALE AFB      CLOUDY    53  53 100 N6        30.22R
LINCOLN        FAIR      54  52  94 NW3       30.22S
MARYSVILLE     CLOUDY    54  49  83 NW3       30.24R
SAC INTL ARPT  CLOUDY    57  52  83 CALM      30.22S
MATHER AIRPORT CLOUDY    57  57 100 E6        30.22
DOWNTOWN SAC   N/A       61  MM  MM MISG
SAC EXEC ARPT  CLOUDY    59  52  77 CALM      30.22S
VACAVILLE      CLOUDY    55  48  77 CALM      30.23R
TRAVIS AFB     MOCLDY    58  53  81 E3        30.21R
$$
CAZ019>021-280300-
SAN JOAQUIN VALLEY

CITY           SKY/WX    TMP DP  RH WIND       PRES   REMARKS
STOCKTON       MOCLDY    59  50  72 N3        30.21R
MODESTO        PTCLDY    58  49  72 CALM      30.21R
MERCED         PTCLDY    57  51  80 N5        30.21R
LEMOORE        PTCLDY    59  51  75 N3        30.21R
FRESNO         PTCLDY    59  52  77 W3        30.21R
HANFORD        PTCLDY    59  52  77 NW3       30.21R
PORTERVILLE    CLEAR     57  52  82 W3        30.21R
BAKERSFIELD    PTCLDY    59  49  69 N6        30.20R
$$
CAZ011-012-071-280300-
NORTHERN MOUNTAINS

CITY           SKY/WX    TMP DP  RH WIND       PRES   REMARKS
YREKA          CLOUDY    49  39  68 CALM      30.19R
MOUNT SHASTA   CLOUDY    46  36  68 SE3       30.24R
ALTURAS        CLOUDY    43  34  70 W9        30.21R
$$
CAZ011-012-071-280300-
SIERRA NEVADA MTNS

CITY           SKY/WX    TMP DP  RH WIND       PRES   REMARKS
BLUE CANYON    CLOUDY    43  26  51 CALM      30.28R
TRUCKEE        MOCLDY    32  32 100 SE3       30.26S
TAHOE VLY ARPT MOCLDY    36  31  82 CALM      30.27R
MAMMOTH LAKES  CLOUDY    37  32  81 E5        30.25R WCI  34
$$



USA.gov is the U.S. government's official web portal to all federal, state and local government web resources and services.